Time,TemperatureF,DewpointF,PressureIn,WindDirection,WindDirectionDegrees,WindSpeedMPH,WindSpeedGustMPH,Humidity,HourlyPrecipIn,Conditions,Clouds,dailyrainin,SoftwareType,DateUTC
2013-05-24 00:01:00,46.0,46.0,30.19,NW,315,0.0,0.0,99,0.01,,,-99.99,,2013-05-24 07:01:00,
2013-05-24 00:11:00,46.0,46.0,30.19,NW,315,0.0,0.0,99,0.01,,,-99.99,,2013-05-24 07:11:00,
2013-05-24 00:22:00,46.0,46.0,30.19,NW,315,0.0,0.0,99,0.01,,,-99.99,,2013-05-24 07:22:00,
2013-05-24 00:31:00,45.0,45.0,30.19,West,270,0.0,0.0,99,0.01,,,-99.99,,2013-05-24 07:31:00,
2013-05-24 00:41:00,45.0,45.0,30.19,West,270,0.0,0.0,99,0.01,,,-99.99,,2013-05-24 07:41:00,
2013-05-24 00:52:00,45.0,45.0,30.19,West,270,0.0,0.0,99,0.01,,,-99.99,,2013-05-24 07:52:00,
2013-05-24 01:02:00,45.0,45.0,30.19,NW,315,0.0,2.0,99,0.00,,,-99.99,,2013-05-24 08:02:00,
2013-05-24 01:11:00,45.0,45.0,30.19,NW,315,0.0,2.0,99,0.00,,,-99.99,,2013-05-24 08:11:00,
2013-05-24 01:22:00,45.0,45.0,30.19,NW,315,0.0,3.0,99,0.00,,,-99.99,,2013-05-24 08:22:00,
2013-05-24 01:32:00,45.0,45.0,30.18,SW,225,0.0,2.0,99,0.00,,,-99.99,,2013-05-24 08:32:00,
2013-05-24 01:41:00,45.0,45.0,30.18,SW,225,0.0,2.0,99,0.00,,,-99.99,,2013-05-24 08:41:00,
2013-05-24 01:51:00,45.0,45.0,30.18,SW,225,0.0,2.0,99,0.00,,,-99.99,,2013-05-24 08:51:00,
2013-05-24 02:01:00,45.0,45.0,30.18,NE,45,1.0,4.0,99,0.00,,,-99.99,,2013-05-24 09:01:00,
2013-05-24 02:11:00,45.0,45.0,30.18,NE,45,1.0,4.0,99,0.00,,,-99.99,,2013-05-24 09:11:00,
2013-05-24 02:21:00,45.0,45.0,30.17,NW,315,0.0,3.0,99,0.00,,,-99.99,,2013-05-24 09:21:00,
2013-05-24 02:32:00,45.0,45.0,30.18,NW,315,1.0,2.0,99,0.00,,,-99.99,,2013-05-24 09:32:00,
2013-05-24 02:42:00,45.0,45.0,30.18,NW,315,1.0,2.0,99,0.00,,,-99.99,,2013-05-24 09:42:00,
2013-05-24 02:52:00,45.0,45.0,30.18,NNE,22,0.0,3.0,99,0.00,,,-99.99,,2013-05-24 09:52:00,
2013-05-24 03:02:00,45.0,45.0,30.18,NW,315,0.0,2.0,99,0.00,,,-99.99,,2013-05-24 10:02:00,
2013-05-24 03:12:00,45.0,45.0,30.18,NW,315,0.0,2.0,99,0.00,,,-99.99,,2013-05-24 10:12:00,
2013-05-24 03:22:00,45.0,45.0,30.18,NW,315,0.0,2.0,99,0.00,,,-99.99,,2013-05-24 10:22:00,
2013-05-24 03:32:00,45.0,45.0,30.18,NW,315,0.0,2.0,99,0.00,,,-99.99,,2013-05-24 10:32:00,
2013-05-24 03:42:00,45.0,45.0,30.18,NW,315,0.0,2.0,99,0.00,,,-99.99,,2013-05-24 10:42:00,
2013-05-24 03:52:00,44.0,44.0,30.18,West,270,0.0,1.0,99,0.00,,,-99.99,,2013-05-24 10:52:00,
2013-05-24 04:02:00,44.0,44.0,30.18,NW,315,0.0,2.0,99,0.00,,,-99.99,,2013-05-24 11:02:00,
2013-05-24 04:12:00,44.0,44.0,30.18,NW,315,0.0,2.0,99,0.00,,,-99.99,,2013-05-24 11:12:00,
2013-05-24 04:22:00,45.0,45.0,30.18,NW,315,0.0,2.0,99,0.00,,,-99.99,,2013-05-24 11:22:00,
2013-05-24 04:32:00,44.0,44.0,30.18,North,360,0.0,1.0,99,0.00,,,-99.99,,2013-05-24 11:32:00,
2013-05-24 04:41:00,44.0,44.0,30.18,North,360,0.0,1.0,99,0.00,,,-99.99,,2013-05-24 11:41:00,
2013-05-24 04:51:00,44.0,44.0,30.18,West,270,0.0,2.0,99,0.00,,,-99.99,,2013-05-24 11:51:00,
2013-05-24 05:01:00,45.0,45.0,30.18,NW,315,0.0,2.0,99,0.00,,,-99.99,,2013-05-24 12:01:00,
2013-05-24 05:11:00,45.0,45.0,30.18,NW,315,0.0,2.0,99,0.00,,,-99.99,,2013-05-24 12:11:00,
2013-05-24 05:21:00,45.0,45.0,30.18,SW,225,0.0,2.0,99,0.00,,,-99.99,,2013-05-24 12:21:00,
2013-05-24 05:32:00,45.0,45.0,30.18,NW,315,0.0,2.0,99,0.00,,,-99.99,,2013-05-24 12:32:00,
2013-05-24 05:42:00,45.0,45.0,30.18,NW,315,0.0,2.0,99,0.00,,,-99.99,,2013-05-24 12:42:00,
2013-05-24 05:52:00,45.0,45.0,30.19,NW,315,0.0,0.0,99,0.00,,,-99.99,,2013-05-24 12:52:00,
2013-05-24 06:01:00,45.0,45.0,30.19,West,270,0.0,0.0,99,0.00,,,-99.99,,2013-05-24 13:01:00,
2013-05-24 06:11:00,45.0,45.0,30.19,West,270,0.0,0.0,99,0.00,,,-99.99,,2013-05-24 13:11:00,
2013-05-24 06:21:00,45.0,45.0,30.19,North,360,0.0,0.0,99,0.00,,,-99.99,,2013-05-24 13:21:00,
2013-05-24 06:31:00,45.0,45.0,30.20,NW,315,0.0,0.0,99,0.00,,,-99.99,,2013-05-24 13:31:00,
2013-05-24 06:41:00,45.0,45.0,30.20,NW,315,0.0,0.0,99,0.00,,,-99.99,,2013-05-24 13:41:00,
2013-05-24 06:52:00,46.0,46.0,30.20,NW,315,0.0,1.0,99,0.00,,,-99.99,,2013-05-24 13:52:00,
2013-05-24 07:01:00,46.0,46.0,30.20,NW,315,0.0,0.0,99,0.00,,,-99.99,,2013-05-24 14:01:00,
2013-05-24 07:11:00,46.0,46.0,30.20,NW,315,0.0,0.0,99,0.00,,,-99.99,,2013-05-24 14:11:00,
2013-05-24 07:21:00,46.0,46.0,30.20,NW,315,0.0,0.0,99,0.00,,,-99.99,,2013-05-24 14:21:00,
2013-05-24 07:31:00,47.0,47.0,30.21,NW,315,0.0,0.0,99,0.00,,,-99.99,,2013-05-24 14:31:00,
2013-05-24 07:41:00,47.0,47.0,30.21,NW,315,0.0,0.0,99,0.00,,,-99.99,,2013-05-24 14:41:00,
2013-05-24 07:52:00,48.0,48.0,30.21,NW,315,0.0,0.0,99,0.00,,,-99.99,,2013-05-24 14:52:00,
2013-05-24 08:01:00,49.0,49.0,30.21,North,360,0.0,1.0,99,0.00,,,-99.99,,2013-05-24 15:01:00,
2013-05-24 08:11:00,49.0,49.0,30.21,North,360,0.0,1.0,99,0.00,,,-99.99,,2013-05-24 15:11:00,
2013-05-24 08:21:00,49.0,49.0,30.21,North,360,0.0,2.0,99,0.00,,,-99.99,,2013-05-24 15:21:00,
2013-05-24 08:32:00,51.0,51.0,30.21,NE,45,0.0,3.0,99,0.00,,,-99.99,,2013-05-24 15:32:00,
2013-05-24 08:52:00,51.0,51.0,30.22,South,180,1.0,3.0,99,0.00,,,-99.99,,2013-05-24 15:52:00,
2013-05-24 09:03:00,52.0,52.0,30.22,East,90,0.0,2.0,99,0.00,,,-99.99,,2013-05-24 16:03:00,
2013-05-24 09:12:00,52.0,52.0,30.22,East,90,0.0,2.0,99,0.00,,,-99.99,,2013-05-24 16:12:00,
2013-05-24 09:22:00,54.0,52.0,30.22,NW,315,1.0,5.0,92,0.00,,,-99.99,,2013-05-24 16:22:00,
2013-05-24 09:32:00,58.0,53.0,30.21,SSW,202,1.0,6.0,83,0.00,,,-99.99,,2013-05-24 16:32:00,
2013-05-24 09:52:00,58.0,52.0,30.21,SE,135,2.0,4.0,79,0.00,,,-99.99,,2013-05-24 16:52:00,
2013-05-24 10:01:00,58.0,51.0,30.21,NE,45,1.0,5.0,77,0.00,,,-99.99,,2013-05-24 17:01:00,
2013-05-24 10:22:00,59.0,51.0,30.21,SW,225,0.0,6.0,74,0.00,,,-99.99,,2013-05-24 17:22:00,
2013-05-24 10:32:00,60.0,52.0,30.21,East,90,0.0,4.0,74,0.00,,,-99.99,,2013-05-24 17:32:00,
2013-05-24 10:52:00,59.0,50.0,30.22,North,360,2.0,5.0,71,0.00,,,-99.99,,2013-05-24 17:52:00,
2013-05-24 11:01:00,56.0,49.0,30.22,NW,315,1.0,6.0,77,0.00,,,-99.99,,2013-05-24 18:01:00,
2013-05-24 11:11:00,56.0,49.0,30.22,NW,315,1.0,6.0,77,0.00,,,-99.99,,2013-05-24 18:11:00,
2013-05-24 11:21:00,55.0,49.0,30.22,North,360,3.0,6.0,81,0.00,,,-99.99,,2013-05-24 18:21:00,
2013-05-24 11:31:00,54.0,49.0,30.23,West,270,3.0,6.0,82,0.00,,,-99.99,,2013-05-24 18:31:00,
2013-05-24 11:41:00,54.0,49.0,30.23,West,270,3.0,6.0,82,0.00,,,-99.99,,2013-05-24 18:41:00,
2013-05-24 11:52:00,54.0,49.0,30.23,North,360,1.0,8.0,83,0.02,,,-99.99,,2013-05-24 18:52:00,
2013-05-24 12:01:00,56.0,51.0,30.23,North,360,0.0,4.0,83,0.02,,,-99.99,,2013-05-24 19:01:00,
2013-05-24 12:11:00,56.0,51.0,30.23,North,360,0.0,4.0,83,0.02,,,-99.99,,2013-05-24 19:11:00,
2013-05-24 12:21:00,56.0,49.0,30.23,North,360,2.0,6.0,78,0.02,,,-99.99,,2013-05-24 19:21:00,
2013-05-24 12:31:00,60.0,49.0,30.22,North,360,2.0,7.0,68,0.02,,,-99.99,,2013-05-24 19:31:00,
2013-05-24 12:52:00,64.0,50.0,30.22,West,270,3.0,8.0,60,0.00,,,-99.99,,2013-05-24 19:52:00,
2013-05-24 13:02:00,63.0,49.0,30.23,NW,315,2.0,8.0,61,0.00,,,-99.99,,2013-05-24 20:02:00,
2013-05-24 13:21:00,62.0,49.0,30.22,South,180,1.0,9.0,63,0.00,,,-99.99,,2013-05-24 20:21:00,
2013-05-24 13:31:00,62.0,50.0,30.22,SE,135,2.0,5.0,64,0.00,,,-99.99,,2013-05-24 20:31:00,
2013-05-24 13:41:00,62.0,50.0,30.22,SE,135,2.0,5.0,64,0.00,,,-99.99,,2013-05-24 20:41:00,
2013-05-24 13:51:00,67.0,52.0,30.22,NW,315,2.0,5.0,59,0.00,,,-99.99,,2013-05-24 20:51:00,
2013-05-24 14:01:00,67.0,48.0,30.22,North,360,2.0,9.0,51,0.00,,,-99.99,,2013-05-24 21:01:00,
2013-05-24 14:21:00,68.0,50.0,30.22,NW,315,1.0,5.0,52,0.00,,,-99.99,,2013-05-24 21:21:00,
2013-05-24 14:32:00,69.0,51.0,30.21,North,360,2.0,7.0,52,0.00,,,-99.99,,2013-05-24 21:32:00,
2013-05-24 14:53:00,70.0,49.0,30.21,SW,225,2.0,6.0,47,0.00,,,-99.99,,2013-05-24 21:53:00,
2013-05-24 15:02:00,67.0,49.0,30.21,North,360,2.0,6.0,52,0.00,,,-99.99,,2013-05-24 22:02:00,
2013-05-24 15:12:00,67.0,49.0,30.21,North,360,2.0,6.0,52,0.00,,,-99.99,,2013-05-24 22:12:00,
2013-05-24 15:22:00,67.0,49.0,30.21,North,360,2.0,6.0,52,0.00,,,-99.99,,2013-05-24 22:22:00,
2013-05-24 15:32:00,67.0,48.0,30.21,North,360,3.0,8.0,50,0.00,,,-99.99,,2013-05-24 22:32:00,
2013-05-24 15:42:00,67.0,48.0,30.21,North,360,3.0,8.0,50,0.00,,,-99.99,,2013-05-24 22:42:00,
2013-05-24 15:52:00,66.0,48.0,30.21,SW,225,1.0,7.0,53,0.00,,,-99.99,,2013-05-24 22:52:00,
2013-05-24 16:02:00,65.0,50.0,30.21,SW,225,2.0,6.0,58,0.00,,,-99.99,,2013-05-24 23:02:00,
2013-05-24 16:11:00,65.0,50.0,30.21,SW,225,2.0,6.0,58,0.00,,,-99.99,,2013-05-24 23:11:00,
2013-05-24 16:22:00,67.0,50.0,30.21,ENE,68,1.0,6.0,55,0.00,,,-99.99,,2013-05-24 23:22:00,
2013-05-24 16:52:00,68.0,51.0,30.21,South,180,0.0,7.0,54,0.00,,,-99.99,,2013-05-24 23:52:00,
2013-05-24 17:21:00,69.0,51.0,30.21,North,360,2.0,8.0,52,0.00,,,-99.99,,2013-05-25 00:21:00,
2013-05-24 17:32:00,67.0,49.0,30.21,North,360,2.0,8.0,52,0.00,,,-99.99,,2013-05-25 00:32:00,
2013-05-24 17:52:00,65.0,49.0,30.22,WSW,248,2.0,7.0,56,0.00,,,-99.99,,2013-05-25 00:52:00,
2013-05-24 18:01:00,63.0,49.0,30.22,North,360,1.0,7.0,60,0.00,,,-99.99,,2013-05-25 01:01:00,
2013-05-24 18:21:00,62.0,49.0,30.22,NE,45,0.0,6.0,63,0.00,,,-99.99,,2013-05-25 01:21:00,
2013-05-24 18:32:00,64.0,50.0,30.22,East,90,1.0,7.0,60,0.00,,,-99.99,,2013-05-25 01:32:00,
2013-05-24 18:52:00,62.0,51.0,30.22,SSW,202,0.0,7.0,66,0.00,,,-99.99,,2013-05-25 01:52:00,
2013-05-24 19:01:00,60.0,49.0,30.22,North,360,2.0,6.0,68,0.00,,,-99.99,,2013-05-25 02:01:00,
2013-05-24 19:11:00,60.0,49.0,30.22,North,360,2.0,6.0,68,0.00,,,-99.99,,2013-05-25 02:11:00,
2013-05-24 19:21:00,60.0,50.0,30.22,NW,315,0.0,6.0,70,0.00,,,-99.99,,2013-05-25 02:21:00,
2013-05-24 19:31:00,58.0,49.0,30.22,NW,315,1.0,4.0,73,0.00,,,-99.99,,2013-05-25 02:31:00,
2013-05-24 19:41:00,58.0,49.0,30.22,NW,315,1.0,4.0,73,0.00,,,-99.99,,2013-05-25 02:41:00,
2013-05-24 19:51:00,57.0,48.0,30.22,North,360,0.0,3.0,73,0.00,,,-99.99,,2013-05-25 02:51:00,
2013-05-24 20:01:00,56.0,49.0,30.22,West,270,0.0,4.0,76,0.00,,,-99.99,,2013-05-25 03:01:00,
2013-05-24 20:11:00,56.0,49.0,30.22,West,270,0.0,4.0,76,0.00,,,-99.99,,2013-05-25 03:11:00,
2013-05-24 20:21:00,56.0,49.0,30.23,North,360,0.0,4.0,78,0.00,,,-99.99,,2013-05-25 03:21:00,
2013-05-24 20:32:00,56.0,50.0,30.23,NW,315,1.0,4.0,80,0.00,,,-99.99,,2013-05-25 03:32:00,
2013-05-24 20:43:00,56.0,50.0,30.23,NW,315,1.0,4.0,80,0.00,,,-99.99,,2013-05-25 03:43:00,
2013-05-24 20:53:00,55.0,50.0,30.23,NW,315,0.0,3.0,82,0.00,,,-99.99,,2013-05-25 03:53:00,
2013-05-24 21:02:00,55.0,50.0,30.23,NW,315,0.0,3.0,82,0.00,,,-99.99,,2013-05-25 04:02:00,
2013-05-24 21:12:00,55.0,50.0,30.23,NW,315,0.0,3.0,82,0.00,,,-99.99,,2013-05-25 04:12:00,
2013-05-24 21:23:00,54.0,50.0,30.23,South,180,0.0,2.0,85,0.00,,,-99.99,,2013-05-25 04:23:00,
2013-05-24 21:32:00,54.0,51.0,30.24,SW,225,0.0,2.0,88,0.00,,,-99.99,,2013-05-25 04:32:00,
2013-05-24 21:43:00,54.0,51.0,30.24,SW,225,0.0,2.0,88,0.00,,,-99.99,,2013-05-25 04:43:00,
2013-05-24 21:52:00,53.0,50.0,30.25,North,360,0.0,2.0,89,0.00,,,-99.99,,2013-05-25 04:52:00,
2013-05-24 22:02:00,53.0,50.0,30.24,South,180,0.0,2.0,91,0.00,,,-99.99,,2013-05-25 05:02:00,
2013-05-24 22:12:00,53.0,50.0,30.24,South,180,0.0,2.0,91,0.00,,,-99.99,,2013-05-25 05:12:00,
2013-05-24 22:22:00,52.0,50.0,30.24,West,270,0.0,2.0,93,0.00,,,-99.99,,2013-05-25 05:22:00,
2013-05-24 22:32:00,52.0,51.0,30.24,South,180,0.0,2.0,95,0.00,,,-99.99,,2013-05-25 05:32:00,
2013-05-24 22:42:00,52.0,51.0,30.24,South,180,0.0,2.0,95,0.00,,,-99.99,,2013-05-25 05:42:00,
2013-05-24 22:52:00,51.0,50.0,30.24,NW,315,0.0,2.0,96,0.00,,,-99.99,,2013-05-25 05:52:00,
2013-05-24 23:01:00,51.0,50.0,30.24,WNW,292,2.0,4.0,96,0.00,,,-99.99,,2013-05-25 06:01:00,
2013-05-24 23:12:00,51.0,50.0,30.24,South,180,0.0,4.0,96,0.00,,,-99.99,,2013-05-25 06:12:00,
2013-05-24 23:21:00,51.0,50.0,30.24,South,180,0.0,4.0,96,0.00,,,-99.99,,2013-05-25 06:21:00,
2013-05-24 23:32:00,51.0,50.0,30.23,SW,225,0.0,3.0,95,0.00,,,-99.99,,2013-05-25 06:32:00,
2013-05-24 23:42:00,51.0,50.0,30.23,SW,225,0.0,3.0,95,0.00,,,-99.99,,2013-05-25 06:42:00,
2013-05-24 23:52:00,50.0,49.0,30.23,NE,45,0.0,4.0,95,0.00,,,-99.99,,2013-05-25 06:52:00,